SCP
0 0 0 0 0 0 0 0 0 0 0 0 0 0 0 0 0 0 0 0 0 0 0 0 0 0 0 0 0 0 0 0 0 0 0 0 0 0 0 0 0 0 0
0 0 0 0 0 0 0 0 0 0 0 0 0 0 0 0 0 0 0 0 0 0 0 0 0 0 0 0 0 0 0 0 0 0 0 0 0 0 0 0 0 0 0
0 0 0 0 0 0 0 0 0 0 0 0 0 0 0 0 0 0 0 0 0 0 0 0 0 0 0 0 0 0 0 0 0 0 0 0 0 0 0 0 0 0 0
0 0 0 0 0 0 0 0 0 0 0 0 0 0 0 0 0 0 0 0 0 0 0 0 0 0 0 0 0 0 0 0 0 0 0 0 0 0 0 0 0 0 0
0 0 0 0 0 0 0 0 0 0 0 0 0 0 0 0 0 0 0 0 0 0 0 0 0 0 0 0 0 0 0 0 0 0 0 0 0 0 0 0 0 0 0
0 0 0 0 0 0 0 0 0 0 0 0 0 0 0 0 0 0 0 0 0 0 0 0 0 0 0 0 0 0 0 0 0 0 0 0 0 0 0 0 0 0 0
0 0 0 0 0 0 0 0 0 0 0 0 0 0 0 0 0 0 0 0 0 0 0 0 0 0 0 0 0 0 0 0 0 0 0 0 0 0 0 0 0 0 0
0 0 0 0 0 0 0 0 0 0 0 0 0 0 0 0 0 0 0 0 0 0 0 0 0 0 0 0 0 0 0 0 0 0 0 0 0 0 0 0 0 0 0
0 0 0 0 0 0 0 0 0 0 0 0 0 0 0 0 0 0 0 0 0 0 0 0 0 0 0 0 0 0 0 0 0 0 0 0 0 0 0 0 0 0 0
0 0 0 0 0 0 0 0 0 0 0 0 0 0 0 0 0 0 0 0 0 0 0 0 0 0 0 0 0 0 0 0 0 0 0 0 0 0 0 0 0 0 0
0 0 0 0 0 0 0 0 0 0 0 0 0 0 0 0 0 0 0 0 0 0 0 0 0 0 0 0 0 0 0 0 0 0 0 0 0 0 0 0 0 0 0
0 0 0 0 0 0 0 0 0 0 0 0 0 0 0 0 0 0 0 0 0 0 0 0 0 0 0 0 0 0 0 0 0 0 0 0 0 0 0 0 0 0 0
0 0 0 0 0 0 0 0 0 0 0 0 0 0 0 0 0 0 0 0 0 0 0 0 0 0 0 0 0 0 0 0 0 0 0 0 0 0 0 0 0 0 0
0 0 0 0 0 0 0 0 0 0 0 0 0 0 0 0 0 0 0 0 0 0 0 0 0 0 0 0 0 0 0 0 0 0 0 0 0 0 0 0 0 0 0
0 0 0 0 0 0 0 0 0 0 0 0 0 0 0 0 0 0 0 0 0 0 0 0 0 0 0 0 0 0 0 0 0 0 0 0 0 0 0 0 0 0 0
0 0 0 0 0 0 0 0 0 0 0 0 0 0 0 0 0 0 0 0 0 0 0 0 0 0 0 0 0 0 0 0 0 0 0 0 0 0 0 0 0 0 0
0 0 0 0 0 0 0 0 0 0 0 0 0 0 0 0 0 0 0 0 0 0 0 0 0 0 0 0 0 0 0 0 0 0 0 0 0 0 0 0 0 0 0
0 0 0 0 0 0 0 0 0 0 0 0 0 0 0 0 0 0 0 0 0 0 0 0 0 0 0 0 0 0 0 0 0 0 0 0 0 0 0 0 0 0 0
0 0 0 0 0 0 0 0 0 0 0 0 0 0 0 0 0 0 0 0 0 0 0 0 0 0 0 0 0 0 0 0 0 0 0 0 0 0 0 0 0 0 0
0 0 0 0 0 0 0 0 0 0 0 0 0 0 0 0 0 0 0 0 0 0 0 0 0 0 0 0 0 0 0 0 0 0 0 0 0 0 0 0 0 0 0
0 0 0 0 0 0 0 0 0 0 0 0 0 0 0 0 0 0 0 0 0 0 0 0 0 0 0 0 0 0 0 0 0 0 0 0 0 0 0 0 0 0 0
0 0 0 0 0 0 0 0 0 0 0 0 0 0 0 0 0 0 0 0 0 0 0 0 0 0 0 0 0 0 0 0 0 0 0 0 0 0 0 0 0 0 0
0 0 0 0 0 0 0 0 0 0 0 0 0 0 0 0 0 0 0 0 0 0 0 0 0 0 0 0 0 0 0 0 0 0 0 0 0 -0 -0 0 0 0 0
0 0 0 0 0 0 0 0 0 0 0 0 0 0 0 0 0 0 0 0 0 0 0 0 0 0 0 0 0 0 0 0 0 0 -0 -0 -0 -0 -0 -0 -0 -0 -0
0 0 0 0 0 0 0 0 0 0 0 0 0 0 0 0 0 0 0 0 0 0 0 0 0 0 0 0 0 0 0 0 -0 -0 -0 -0 -0 -0 -0 -0 -0 -0 -0
0 0 0 0 0 0 0 0 0 0 0 0 0 0 0 0 0 0 0 0 0 0 0 0 0 0 0 0 0 0 -0 0 -0 -0 -0 0 0 -0 -0 -0 -0 -0 -0
Wind_Speed_500mb
82 81 78 78 73 67 59 53 46 42 39 33 28 24 21 18 14 9 5 3 3 4 8 12 15 19 23 27 30 33 36 43 55 67 68 73 77 81 85 90 91 89 83
85 81 81 79 76 70 62 55 50 47 41 35 32 29 26 23 16 11 7 5 4 6 7 12 17 21 25 30 33 36 40 45 53 64 72 75 79 82 87 95 97 96 95
86 85 84 81 78 72 64 59 56 51 45 42 39 36 33 27 20 15 11 9 9 9 11 14 18 23 27 32 36 40 44 48 53 62 71 74 79 82 90 94 98 97 95
90 88 86 84 78 71 67 64 59 53 49 47 44 42 37 32 26 21 16 14 15 16 17 19 23 27 30 34 39 43 47 51 56 61 68 73 77 81 87 92 102 95 98
94 92 90 83 77 73 71 67 61 55 53 50 49 46 42 39 32 26 23 24 24 24 23 26 31 32 34 38 42 44 48 54 59 61 67 71 75 84 85 89 90 93 100
98 96 90 84 78 75 72 68 63 59 58 56 53 50 47 43 38 31 33 32 32 33 33 36 38 37 39 42 45 48 51 55 58 59 62 64 73 77 79 81 79 96 105
100 95 89 84 81 77 74 70 66 63 61 59 55 56 53 49 41 39 40 39 41 41 44 44 43 42 44 46 48 51 54 55 54 52 59 61 70 68 69 80 84 86 90
98 93 89 85 82 78 76 72 69 65 61 54 57 63 57 52 47 46 45 46 47 49 51 49 50 49 49 51 54 57 57 57 54 57 58 63 65 59 66 71 76 80 85
95 94 90 88 81 80 78 75 67 63 56 61 69 67 61 55 52 50 51 53 53 54 54 54 53 55 54 55 59 61 62 62 60 57 59 63 65 61 61 67 69 73 84
87 89 88 81 86 87 77 69 62 61 65 70 72 66 64 59 56 56 56 60 61 59 57 57 57 59 60 60 61 61 66 63 60 65 70 67 65 61 57 57 61 65 68
59 65 70 76 82 78 69 66 67 66 77 69 66 65 63 62 61 61 63 67 68 65 62 61 61 60 63 63 62 63 66 62 63 69 71 72 69 62 58 57 55 58 64
41 46 57 65 67 66 68 70 72 68 65 63 64 63 63 64 65 67 70 74 70 68 69 67 65 63 65 67 67 63 52 51 67 72 75 73 68 64 60 58 57 57 60
39 40 42 48 53 56 60 60 60 59 61 63 65 64 64 65 69 72 73 71 69 69 71 71 69 67 68 68 55 50 59 69 74 74 71 71 65 64 62 59 61 58 62
30 33 36 42 45 48 50 51 53 56 59 61 63 64 65 67 69 69 67 65 64 65 67 66 67 66 67 63 66 63 65 68 67 68 70 69 66 63 60 58 62 61 66
28 31 34 36 39 44 47 49 52 53 55 57 59 61 63 68 66 64 63 60 60 58 62 68 72 73 73 73 69 67 69 67 69 66 67 67 64 62 60 56 56 56 59
27 31 34 36 38 44 47 49 51 53 56 58 60 63 62 62 60 58 57 52 51 48 51 63 67 69 75 74 73 69 70 70 67 63 64 61 61 59 59 55 52 50 55
25 27 30 33 37 42 47 51 53 55 56 57 57 54 57 56 53 49 44 32 33 36 46 55 59 63 67 66 64 65 65 66 60 59 60 59 57 56 55 53 48 47 49
29 31 33 34 37 40 43 46 48 49 46 45 45 43 41 42 45 48 50 54 60 61 65 71 76 79 83 85 81 70 60 65 61 57 57 55 52 53 51 47 42 43 44
32 34 35 35 37 40 40 40 39 38 37 36 36 39 41 45 48 51 53 57 60 62 64 66 68 71 72 74 74 66 59 57 54 53 54 53 49 49 46 41 39 36 37
32 33 35 35 35 34 33 32 32 32 32 33 35 38 39 43 47 47 49 52 56 58 59 60 59 59 60 58 54 53 59 59 55 54 52 49 45 44 43 37 33 33 30
30 30 30 29 28 27 26 27 29 31 32 32 33 34 36 43 44 47 49 50 52 53 52 51 49 48 46 42 40 40 43 43 45 46 45 44 42 40 39 35 30 26 26
25 24 24 23 23 24 26 28 29 30 31 32 33 33 36 38 42 44 45 45 46 46 44 46 44 42 41 42 42 44 39 39 39 39 41 41 38 38 36 33 28 23 22
23 23 24 25 26 27 27 29 30 30 31 33 34 35 38 40 40 40 40 39 39 37 38 40 41 40 38 38 37 37 39 38 37 38 40 38 36 35 35 34 28 25 21
22 23 24 24 25 26 27 28 29 31 32 33 35 36 36 37 36 35 35 36 36 36 36 37 39 40 38 37 37 37 39 39 38 37 38 36 36 34 35 36 32 27 25
22 22 23 24 25 27 29 30 32 33 33 33 33 33 33 34 33 32 33 35 36 37 36 37 37 38 39 38 37 38 37 38 37 36 36 38 37 35 35 35 34 32 29
23 24 26 28 30 32 33 33 32 32 30 30 31 32 33 32 32 32 34 36 38 39 38 37 36 35 36 36 35 36 37 37 36 36 38 39 38 36 35 35 33 36 33
Wind_Direction_500mb
202 198 197 194 194 195 196 196 197 198 199 202 201 199 201 208 215 221 226 252 286 322 322 325 327 325 322 320 319 317 318 318 315 315 317 321 323 324 325 327 330 330 332
203 201 198 197 197 197 198 199 201 204 205 207 204 205 211 218 219 219 222 226 268 299 320 324 325 323 317 312 311 312 313 311 308 309 315 319 319 321 324 327 330 333 333
203 201 200 201 201 201 201 203 205 207 209 208 208 215 220 220 220 222 227 244 263 283 303 316 321 320 317 312 309 307 307 307 306 307 310 313 316 322 325 328 330 329 329
204 204 204 205 206 206 206 208 210 210 212 212 214 218 221 223 225 229 235 256 265 274 287 301 309 313 312 309 308 308 307 305 304 306 306 311 316 324 328 327 325 327 326
207 207 209 209 209 209 209 211 211 213 215 216 219 220 223 226 229 235 248 255 261 270 283 291 293 298 304 307 305 304 304 304 304 305 306 313 318 325 325 324 323 325 323
211 212 212 212 212 212 213 214 214 216 217 219 224 228 230 231 233 241 252 257 264 271 275 279 283 291 298 301 302 302 302 302 301 302 305 310 315 318 321 322 319 320 322
214 214 215 215 216 216 217 218 219 221 222 226 230 234 233 234 237 247 253 260 266 269 271 274 279 286 291 295 298 298 299 297 295 295 299 304 311 318 317 315 317 316 316
218 218 219 220 221 221 222 223 224 226 227 233 246 238 238 238 243 249 257 262 266 269 271 274 279 284 289 291 295 297 298 294 293 297 302 305 311 310 306 310 311 313 312
223 225 225 224 225 228 227 227 228 233 233 253 245 240 241 244 247 255 259 266 268 270 271 273 278 282 286 287 290 295 297 297 298 298 293 296 302 306 308 307 312 314 318
227 229 230 230 236 232 232 232 241 239 250 252 244 244 246 247 249 256 260 265 267 271 274 276 278 280 283 284 286 290 292 298 297 293 294 300 304 305 306 305 310 315 320
224 231 237 237 236 236 237 237 240 249 245 246 247 248 248 251 252 256 261 264 267 271 274 276 278 280 282 284 285 284 287 290 288 287 293 301 302 302 304 304 308 312 315
232 229 232 233 232 234 236 242 244 244 245 246 247 249 250 252 255 257 260 263 269 272 274 276 278 280 280 281 282 282 276 268 271 284 293 298 298 301 302 302 306 309 309
225 225 224 227 229 233 237 241 242 241 241 243 246 249 253 256 259 262 265 268 267 268 274 278 279 280 281 281 277 268 268 271 279 283 292 299 297 297 299 303 304 308 308
207 211 216 222 227 232 235 237 237 239 241 245 249 253 259 264 267 268 268 269 268 266 268 273 277 280 279 275 275 275 272 277 281 286 295 297 294 295 298 303 306 312 312
204 213 220 226 234 237 234 235 239 243 248 253 257 260 261 262 267 270 271 271 271 270 271 272 274 276 276 277 279 282 280 278 280 285 292 293 291 293 296 301 305 310 314
227 230 233 236 239 238 239 243 247 252 254 257 259 261 264 268 273 275 274 273 275 279 278 280 284 288 287 288 288 286 283 275 273 280 290 288 288 290 295 299 303 309 315
235 239 243 246 249 250 251 254 256 256 257 258 260 264 271 272 270 270 269 264 261 259 258 260 270 278 285 290 289 291 288 272 273 282 288 285 283 286 291 296 301 308 314
252 254 252 249 247 247 249 250 250 253 258 262 266 267 266 266 269 269 265 263 268 268 270 270 269 271 274 278 283 285 284 277 277 281 284 280 279 283 287 291 296 308 316
258 259 258 255 254 253 253 254 256 258 259 258 258 259 261 264 268 269 273 279 282 283 282 279 278 279 280 280 278 277 274 272 274 280 282 276 275 278 282 285 292 305 314
262 260 258 256 255 253 253 254 257 258 258 258 259 262 267 271 272 279 283 285 285 287 289 290 290 287 286 287 285 279 272 273 277 278 275 272 272 274 278 279 287 302 314
259 259 257 254 251 253 256 259 261 264 266 268 270 274 274 278 287 291 294 295 295 295 296 294 293 291 286 282 283 289 285 276 269 269 270 270 268 271 270 271 283 295 309
258 255 253 253 254 256 259 261 262 264 266 270 274 278 281 289 291 294 293 293 294 297 299 298 299 296 289 282 281 286 284 276 273 273 270 266 266 268 265 263 274 285 299
256 255 254 254 255 255 255 257 260 264 269 274 279 283 287 287 287 288 290 292 294 295 293 293 294 294 290 288 286 283 280 280 278 273 270 264 265 266 262 259 265 272 283
254 254 254 255 254 254 256 260 266 271 276 279 280 281 280 282 286 289 291 293 296 295 294 292 292 291 288 286 285 281 279 278 276 274 267 265 266 263 260 256 256 267 274
255 254 253 253 256 261 267 270 271 271 272 272 273 276 278 282 285 289 293 294 295 295 293 291 289 288 288 286 284 282 279 276 274 270 268 268 266 262 259 257 255 260 263
254 254 258 264 266 264 263 263 264 266 268 270 273 275 278 284 290 293 294 293 294 293 293 292 290 289 288 287 285 281 279 277 274 271 269 267 265 263 261 260 261 259 262
Wind_Speed_850mb
82 81 78 78 73 67 59 53 46 42 39 33 28 24 21 18 14 9 5 3 3 4 8 12 15 19 23 27 30 33 36 43 55 67 68 73 77 81 85 90 91 89 83
85 81 81 79 76 70 62 55 50 47 41 35 32 29 26 23 16 11 7 5 4 6 7 12 17 21 25 30 33 36 40 45 53 64 72 75 79 82 87 95 97 96 95
86 85 84 81 78 72 64 59 56 51 45 42 39 36 33 27 20 15 11 9 9 9 11 14 18 23 27 32 36 40 44 48 53 62 71 74 79 82 90 94 98 97 95
90 88 86 84 78 71 67 64 59 53 49 47 44 42 37 32 26 21 16 14 15 16 17 19 23 27 30 34 39 43 47 51 56 61 68 73 77 81 87 92 102 95 98
94 92 90 83 77 73 71 67 61 55 53 50 49 46 42 39 32 26 23 24 24 24 23 26 31 32 34 38 42 44 48 54 59 61 67 71 75 84 85 89 90 93 100
98 96 90 84 78 75 72 68 63 59 58 56 53 50 47 43 38 31 33 32 32 33 33 36 38 37 39 42 45 48 51 55 58 59 62 64 73 77 79 81 79 96 105
100 95 89 84 81 77 74 70 66 63 61 59 55 56 53 49 41 39 40 39 41 41 44 44 43 42 44 46 48 51 54 55 54 52 59 61 70 68 69 80 84 86 90
98 93 89 85 82 78 76 72 69 65 61 54 57 63 57 52 47 46 45 46 47 49 51 49 50 49 49 51 54 57 57 57 54 57 58 63 65 59 66 71 76 80 85
95 94 90 88 81 80 78 75 67 63 56 61 69 67 61 55 52 50 51 53 53 54 54 54 53 55 54 55 59 61 62 62 60 57 59 63 65 61 61 67 69 73 84
87 89 88 81 86 87 77 69 62 61 65 70 72 66 64 59 56 56 56 60 61 59 57 57 57 59 60 60 61 61 66 63 60 65 70 67 65 61 57 57 61 65 68
59 65 70 76 82 78 69 66 67 66 77 69 66 65 63 62 61 61 63 67 68 65 62 61 61 60 63 63 62 63 66 62 63 69 71 72 69 62 58 57 55 58 64
41 46 57 65 67 66 68 70 72 68 65 63 64 63 63 64 65 67 70 74 70 68 69 67 65 63 65 67 67 63 52 51 67 72 75 73 68 64 60 58 57 57 60
39 40 42 48 53 56 60 60 60 59 61 63 65 64 64 65 69 72 73 71 69 69 71 71 69 67 68 68 55 50 59 69 74 74 71 71 65 64 62 59 61 58 62
30 33 36 42 45 48 50 51 53 56 59 61 63 64 65 67 69 69 67 65 64 65 67 66 67 66 67 63 66 63 65 68 67 68 70 69 66 63 60 58 62 61 66
28 31 34 36 39 44 47 49 52 53 55 57 59 61 63 68 66 64 63 60 60 58 62 68 72 73 73 73 69 67 69 67 69 66 67 67 64 62 60 56 56 56 59
27 31 34 36 38 44 47 49 51 53 56 58 60 63 62 62 60 58 57 52 51 48 51 63 67 69 75 74 73 69 70 70 67 63 64 61 61 59 59 55 52 50 55
25 27 30 33 37 42 47 51 53 55 56 57 57 54 57 56 53 49 44 32 33 36 46 55 59 63 67 66 64 65 65 66 60 59 60 59 57 56 55 53 48 47 49
29 31 33 34 37 40 43 46 48 49 46 45 45 43 41 42 45 48 50 54 60 61 65 71 76 79 83 85 81 70 60 65 61 57 57 55 52 53 51 47 42 43 44
32 34 35 35 37 40 40 40 39 38 37 36 36 39 41 45 48 51 53 57 60 62 64 66 68 71 72 74 74 66 59 57 54 53 54 53 49 49 46 41 39 36 37
32 33 35 35 35 34 33 32 32 32 32 33 35 38 39 43 47 47 49 52 56 58 59 60 59 59 60 58 54 53 59 59 55 54 52 49 45 44 43 37 33 33 30
30 30 30 29 28 27 26 27 29 31 32 32 33 34 36 43 44 47 49 50 52 53 52 51 49 48 46 42 40 40 43 43 45 46 45 44 42 40 39 35 30 26 26
25 24 24 23 23 24 26 28 29 30 31 32 33 33 36 38 42 44 45 45 46 46 44 46 44 42 41 42 42 44 39 39 39 39 41 41 38 38 36 33 28 23 22
23 23 24 25 26 27 27 29 30 30 31 33 34 35 38 40 40 40 40 39 39 37 38 40 41 40 38 38 37 37 39 38 37 38 40 38 36 35 35 34 28 25 21
22 23 24 24 25 26 27 28 29 31 32 33 35 36 36 37 36 35 35 36 36 36 36 37 39 40 38 37 37 37 39 39 38 37 38 36 36 34 35 36 32 27 25
22 22 23 24 25 27 29 30 32 33 33 33 33 33 33 34 33 32 33 35 36 37 36 37 37 38 39 38 37 38 37 38 37 36 36 38 37 35 35 35 34 32 29
23 24 26 28 30 32 33 33 32 32 30 30 31 32 33 32 32 32 34 36 38 39 38 37 36 35 36 36 35 36 37 37 36 36 38 39 38 36 35 35 33 36 33
Wind_Direction_850mb
202 198 197 194 194 195 196 196 197 198 199 202 201 199 201 208 215 221 226 252 286 322 322 325 327 325 322 320 319 317 318 318 315 315 317 321 323 324 325 327 330 330 332
203 201 198 197 197 197 198 199 201 204 205 207 204 205 211 218 219 219 222 226 268 299 320 324 325 323 317 312 311 312 313 311 308 309 315 319 319 321 324 327 330 333 333
203 201 200 201 201 201 201 203 205 207 209 208 208 215 220 220 220 222 227 244 263 283 303 316 321 320 317 312 309 307 307 307 306 307 310 313 316 322 325 328 330 329 329
204 204 204 205 206 206 206 208 210 210 212 212 214 218 221 223 225 229 235 256 265 274 287 301 309 313 312 309 308 308 307 305 304 306 306 311 316 324 328 327 325 327 326
207 207 209 209 209 209 209 211 211 213 215 216 219 220 223 226 229 235 248 255 261 270 283 291 293 298 304 307 305 304 304 304 304 305 306 313 318 325 325 324 323 325 323
211 212 212 212 212 212 213 214 214 216 217 219 224 228 230 231 233 241 252 257 264 271 275 279 283 291 298 301 302 302 302 302 301 302 305 310 315 318 321 322 319 320 322
214 214 215 215 216 216 217 218 219 221 222 226 230 234 233 234 237 247 253 260 266 269 271 274 279 286 291 295 298 298 299 297 295 295 299 304 311 318 317 315 317 316 316
218 218 219 220 221 221 222 223 224 226 227 233 246 238 238 238 243 249 257 262 266 269 271 274 279 284 289 291 295 297 298 294 293 297 302 305 311 310 306 310 311 313 312
223 225 225 224 225 228 227 227 228 233 233 253 245 240 241 244 247 255 259 266 268 270 271 273 278 282 286 287 290 295 297 297 298 298 293 296 302 306 308 307 312 314 318
227 229 230 230 236 232 232 232 241 239 250 252 244 244 246 247 249 256 260 265 267 271 274 276 278 280 283 284 286 290 292 298 297 293 294 300 304 305 306 305 310 315 320
224 231 237 237 236 236 237 237 240 249 245 246 247 248 248 251 252 256 261 264 267 271 274 276 278 280 282 284 285 284 287 290 288 287 293 301 302 302 304 304 308 312 315
232 229 232 233 232 234 236 242 244 244 245 246 247 249 250 252 255 257 260 263 269 272 274 276 278 280 280 281 282 282 276 268 271 284 293 298 298 301 302 302 306 309 309
225 225 224 227 229 233 237 241 242 241 241 243 246 249 253 256 259 262 265 268 267 268 274 278 279 280 281 281 277 268 268 271 279 283 292 299 297 297 299 303 304 308 308
207 211 216 222 227 232 235 237 237 239 241 245 249 253 259 264 267 268 268 269 268 266 268 273 277 280 279 275 275 275 272 277 281 286 295 297 294 295 298 303 306 312 312
204 213 220 226 234 237 234 235 239 243 248 253 257 260 261 262 267 270 271 271 271 270 271 272 274 276 276 277 279 282 280 278 280 285 292 293 291 293 296 301 305 310 314
227 230 233 236 239 238 239 243 247 252 254 257 259 261 264 268 273 275 274 273 275 279 278 280 284 288 287 288 288 286 283 275 273 280 290 288 288 290 295 299 303 309 315
235 239 243 246 249 250 251 254 256 256 257 258 260 264 271 272 270 270 269 264 261 259 258 260 270 278 285 290 289 291 288 272 273 282 288 285 283 286 291 296 301 308 314
252 254 252 249 247 247 249 250 250 253 258 262 266 267 266 266 269 269 265 263 268 268 270 270 269 271 274 278 283 285 284 277 277 281 284 280 279 283 287 291 296 308 316
258 259 258 255 254 253 253 254 256 258 259 258 258 259 261 264 268 269 273 279 282 283 282 279 278 279 280 280 278 277 274 272 274 280 282 276 275 278 282 285 292 305 314
262 260 258 256 255 253 253 254 257 258 258 258 259 262 267 271 272 279 283 285 285 287 289 290 290 287 286 287 285 279 272 273 277 278 275 272 272 274 278 279 287 302 314
259 259 257 254 251 253 256 259 261 264 266 268 270 274 274 278 287 291 294 295 295 295 296 294 293 291 286 282 283 289 285 276 269 269 270 270 268 271 270 271 283 295 309
258 255 253 253 254 256 259 261 262 264 266 270 274 278 281 289 291 294 293 293 294 297 299 298 299 296 289 282 281 286 284 276 273 273 270 266 266 268 265 263 274 285 299
256 255 254 254 255 255 255 257 260 264 269 274 279 283 287 287 287 288 290 292 294 295 293 293 294 294 290 288 286 283 280 280 278 273 270 264 265 266 262 259 265 272 283
254 254 254 255 254 254 256 260 266 271 276 279 280 281 280 282 286 289 291 293 296 295 294 292 292 291 288 286 285 281 279 278 276 274 267 265 266 263 260 256 256 267 274
255 254 253 253 256 261 267 270 271 271 272 272 273 276 278 282 285 289 293 294 295 295 293 291 289 288 288 286 284 282 279 276 274 270 268 268 266 262 259 257 255 260 263
254 254 258 264 266 264 263 263 264 266 268 270 273 275 278 284 290 293 294 293 294 293 293 292 290 289 288 287 285 281 279 277 274 271 269 267 265 263 261 260 261 259 262